Simultaneous Nadir Overpasses (SNOs) Predictions

Prediction of SNOs between LANDSAT-8 and METOP-A Satellite Orbit:

Table of predicted SNOs for the next 14.0 days since TLE Epoch: 1/24/2020
Index Date (LANDSAT-8) Time (LANDSAT-8) Lat,Lon (LANDSAT-8) SZA (LANDSAT-8 ) Date (METOP-A) Time (METOP-A) Lat,Lon (METOP-A) SZA (METOP-A ) Distance(km) Time Diff (sec)
1 01/24/2020 23:16:50 -81.49, 57.24 77.16 01/24/2020 23:16:11 -81.48, 57.22 77.18 0.65 39
2 01/25/2020 00:06:17 81.48,-135.42 102.80 01/25/2020 00:06:52 81.48,-135.57 102.80 2.63 35
3 01/27/2020 18:51:05 -81.48, 123.43 77.91 01/27/2020 18:50:34 -81.48, 123.45 77.92 0.79 31
4 01/27/2020 19:40:31 81.48, -68.86 102.10 01/27/2020 19:41:14 81.48, -68.95 102.11 1.51 43
5 01/30/2020 14:25:19 -81.48,-170.01 78.65 01/30/2020 14:24:56 -81.48,-169.93 78.65 1.25 23
6 01/30/2020 15:14:45 81.49, -2.32 101.35 01/30/2020 15:15:36 81.48, -2.34 101.36 0.75 51
7 02/02/2020 09:59:32 -81.49,-103.47 79.44 02/02/2020 09:59:17 -81.48,-103.33 79.43 2.48 15
8 02/02/2020 10:48:59 81.47, 63.80 100.51 02/02/2020 10:49:58 81.48, 63.84 100.55 1.37 59
9 02/05/2020 05:33:46 -81.49, -36.97 80.26 02/05/2020 05:33:40 -81.48, -37.15 80.29 3.14 6




NCC Satellite Simultaneous Nadir Overpasses (SNOs) Prediction Service
